Flag for USA

Past Weather in Irving, Texas, USA — Yesterday and Last 2 Weeks

Currently: 49 °F. Mostly cloudy. (Weather station: Dallas / Fort Worth International Airport, USA). See more current weather

Past Weather in Irving — Graph

°F

Irving Temperature Yesterday

Maximum temperature yesterday: 54 °F (at 4:53 pm)
Minimum temperature yesterday: 46 °F (at 12:53 am)
Average temperature yesterday: 50 °F

High & Low Weather Summary for the Past Weeks

 TemperatureHumidityPressure
High68 °F (Jan 18, 3:53 pm)100% (Jan 20, 4:40 pm)30.45 "Hg (Jan 20, 4:40 pm)
Low28 °F (Jan 12, 6:53 am)16% (Jan 16, 2:53 pm)29.73 "Hg (Jan 14, 3:53 am)
Average45 °F64%30.15 "Hg
* Reported Jan 7 10:53 pm — Jan 22 10:53 pm, Irving. Weather by CustomWeather, © 2021

Note: Actual official high and low records may vary slightly from our data, if they occured in-between our weather recording intervals... More about our weather records

Irving Weather History for the Previous 24 Hours

Scroll right to see more
 ConditionsComfort  
Time TempWeatherWind HumidityBarometerVisibility
10:53 pm
Fri, Jan 22
49 °FMostly cloudy.No wind90%30.08 "Hg8 mi
10:16 pm48 °FPartly cloudy.5 mph89%30.08 "Hg9 mi
9:53 pm49 °FMostly cloudy.5 mph90%30.07 "Hg10 mi
9:19 pm50 °FMostly cloudy.3 mph86%30.07 "Hg10 mi
8:53 pm50 °FOvercast.No wind86%30.06 "Hg10 mi
7:53 pm50 °FOvercast.5 mph86%30.05 "Hg10 mi
7:43 pm50 °FOvercast.7 mph86%30.06 "Hg10 mi
6:53 pm51 °FOvercast.7 mph83%30.04 "Hg10 mi
5:53 pm50 °FOvercast.10 mph83%30.02 "Hg10 mi
4:53 pm51 °FOvercast.6 mph80%30.01 "Hg10 mi
4:13 pm51 °FMostly cloudy.8 mph80%30.00 "Hg10 mi
3:53 pm51 °FMostly cloudy.8 mph80%29.99 "Hg10 mi
2:53 pm51 °FMostly cloudy.9 mph83%29.98 "Hg10 mi
1:53 pm51 °FFog.9 mph83%29.98 "Hg6 mi
1:10 pm50 °FFog.7 mph86%30.00 "Hg5 mi
12:53 pm50 °FFog.6 mph86%30.00 "Hg5 mi
11:53 am51 °FMostly cloudy.8 mph80%30.02 "Hg10 mi
11:34 am51 °FMostly cloudy.8 mph83%30.02 "Hg10 mi
11:14 am50 °FMostly cloudy.9 mph86%30.02 "Hg10 mi
10:53 am50 °FMostly cloudy.9 mph83%30.02 "Hg10 mi
9:53 am49 °FMostly cloudy.12 mph90%30.01 "Hg9 mi
8:53 am49 °FFog.9 mph90%29.98 "Hg6 mi
7:53 am49 °FFog.12 mph93%29.96 "Hg5 mi
6:53 am49 °FFog.7 mph93%29.95 "Hg3 mi
6:20 am48 °FFog.6 mph100%29.96 "Hg6 mi
5:53 am48 °FFog.7 mph100%29.93 "Hg5 mi
5:13 am49 °FFog.7 mph100%29.93 "Hg3 mi
4:53 am48 °FFog.7 mph100%29.93 "Hg0 mi
4:24 am48 °FFog.7 mph100%29.93 "Hg0 mi
3:53 am47 °FLight rain. Fog.7 mph100%29.91 "Hg0 mi
3:34 am47 °FFog.7 mph100%29.91 "Hg0 mi
2:53 am47 °FFog.9 mph100%29.91 "Hg0 mi
1:53 am47 °FFog.6 mph100%29.89 "Hg0 mi
1:21 am46 °FFog.6 mph100%29.90 "Hg0 mi
12:53 am47 °FFog.No wind100%29.89 "Hg1 mi
12:22 am47 °FFog.3 mph100%29.90 "Hg0 mi
11:53 pm
Thu, Jan 21
47 °FFog.No wind100%29.90 "Hg1 mi
Weather by CustomWeather, © 2021

See weather overview